Weather History for KCLS - January, 2014

Change the Weather History Date:

Saturday, January 11, 2014

  Actual Average (KOLM) Record (KOLM)
Temperature  
Mean Temperature 46 °F 40 °F  
Max Temperature 51 °F 45 °F 59 °F (1983)
Min Temperature 42 °F 34 °F 6 °F (1963)
Degree Days  
Heating Degree Days 18 25  
Month to date heating degree days 285  
Since 1 July heating degree days 2555  
Cooling Degree Days 0 0  
Month to date cooling degree days 0  
Year to date cooling degree days 0  
Moisture  
Dew Point 43 °F    
Average Humidity 87    
Maximum Humidity 100    
Minimum Humidity 76    
Precipitation  
Precipitation 0.63 in 0.26 in 1.16 in (1953)
Month to date precipitation 2.83  
Year to date precipitation 2.83  
Sea Level Pressure  
Sea Level Pressure 29.60 in    
Wind  
Wind Speed 14 mph (SSW)    
Max Wind Speed 28 mph    
Max Gust Speed 44 mph    
Visibility 7 miles    
Events Rain    
T = Trace of Precipitation, MM = Missing Value Source: NWS Daily Summary

Daily Weather History Graph

Daily Weather History Graph

Search for Another Location

Airport or City:

Trip Planner

Search our weather history database for the weather conditions in past years. The results will help you decide how hot, cold, wet, or windy it might be!

Date:

Astronomy

Jan. 11, 2014 Rise Set
Actual Time 7:54 AM PST 4:46 PM PST
Civil Twilight 7:19 AM PST 5:20 PM PST
Nautical Twilight 6:42 AM PST 5:58 PM PST
Astronomical Twilight 6:05 AM PST 6:34 PM PST
Moon 1:36 PM PST (1/11) 4:01 AM PST (1/11)
Length of Visible Light 10h 00m
Length of Day
8h 51m
Waxing Gibbous, 84% of the Moon is Illuminated
Jan 11
Waxing Gibbous
Jan 15
Full
Jan 23
Last Quarter
Jan 30
New
Feb 6
First Quarter

Hourly Weather History & Observations

Time (PST) Temp. Windchill Dew Point Humidity Pressure Visibility Wind Dir Wind Speed Gust Speed Precip Events Conditions
12:15 AM 50.0 °F - 48.2 °F 94% 29.62 in 4.0 mi South 12.7 mph 25.3 mph 0.01 in Rain Light Rain
12:35 AM 50.0 °F - 48.2 °F 94% 29.60 in 4.0 mi South 17.3 mph 26.5 mph 0.02 in Rain Light Rain
12:55 AM 50.0 °F - 48.2 °F 94% 29.58 in 8.0 mi South 21.9 mph 34.5 mph 0.02 in   Mostly Cloudy
1:15 AM 50.0 °F - 48.2 °F 94% 29.57 in 5.0 mi South 21.9 mph 33.4 mph N/A   Overcast
1:35 AM 50.0 °F - 48.2 °F 94% 29.56 in 3.0 mi South 21.9 mph 39.1 mph 0.01 in   Overcast
1:55 AM 50.0 °F - 48.2 °F 94% 29.54 in 5.0 mi South 27.6 mph 41.4 mph 0.02 in   Mostly Cloudy
2:15 AM 51.8 °F - 48.2 °F 88% 29.54 in 10.0 mi South 25.3 mph 39.1 mph N/A   Overcast
2:35 AM 51.8 °F - 48.2 °F 88% 29.52 in 3.0 mi South 20.7 mph 32.2 mph 0.05 in Rain Rain
2:55 AM 51.8 °F - 50.0 °F 94% 29.52 in 5.0 mi South 18.4 mph 33.4 mph 0.10 in Rain Light Rain
3:15 AM 50.0 °F - 50.0 °F 100% 29.51 in 3.0 mi South 18.4 mph 29.9 mph 0.05 in Rain Rain
3:35 AM 50.0 °F - 50.0 °F 100% 29.51 in 3.0 mi SSW 13.8 mph 17.3 mph 0.13 in Rain Rain
3:55 AM 50.0 °F - 50.0 °F 100% 29.55 in 3.0 mi WSW 18.4 mph 34.5 mph 0.24 in Rain Rain
4:15 AM 48.2 °F - 44.6 °F 87% 29.58 in 5.0 mi WSW 9.2 mph 32.2 mph 0.03 in Rain Rain
4:35 AM 46.4 °F 41.9 °F 44.6 °F 93% 29.59 in 5.0 mi WSW 9.2 mph - 0.07 in Rain Light Rain
4:55 AM 46.4 °F 41.9 °F 44.6 °F 93% 29.60 in 5.0 mi SW 9.2 mph 17.3 mph 0.11 in Rain Light Rain
5:15 AM 44.6 °F 40.7 °F 44.6 °F 100% 29.59 in 8.0 mi South 6.9 mph - 0.02 in Rain Rain
5:35 AM 44.6 °F 38.4 °F 42.8 °F 93% 29.59 in 10.0 mi South 12.7 mph 16.1 mph 0.02 in   Overcast
5:55 AM 46.4 °F 41.1 °F 41.0 °F 81% 29.58 in 10.0 mi South 11.5 mph - 0.02 in   Overcast
6:15 AM 44.6 °F 38.4 °F 41.0 °F 87% 29.57 in 10.0 mi SSE 12.7 mph 21.9 mph N/A   Overcast
6:35 AM 46.4 °F 41.1 °F 42.8 °F 87% 29.57 in 10.0 mi SSE 11.5 mph 19.6 mph N/A   Overcast
6:55 AM 44.6 °F 38.4 °F 42.8 °F 93% 29.58 in 5.0 mi South 12.7 mph 21.9 mph 0.01 in Rain Light Rain
7:15 AM 44.6 °F 38.4 °F 44.6 °F 100% 29.59 in 10.0 mi South 12.7 mph - N/A   Overcast
7:35 AM 44.6 °F 39.2 °F 44.6 °F 100% 29.59 in 10.0 mi South 10.4 mph - N/A   Overcast
7:55 AM 46.4 °F 41.9 °F 41.0 °F 81% 29.59 in 10.0 mi South 9.2 mph - N/A   Overcast
8:15 AM 46.4 °F 41.5 °F 41.0 °F 81% 29.58 in 10.0 mi South 10.4 mph - N/A   Overcast
8:35 AM 46.4 °F 40.7 °F 41.0 °F 81% 29.57 in 10.0 mi South 12.7 mph 21.9 mph N/A   Overcast
8:55 AM 46.4 °F 40.1 °F 42.8 °F 87% 29.57 in 6.0 mi South 15.0 mph 20.7 mph N/A   Overcast
9:15 AM 46.4 °F 39.5 °F 42.8 °F 87% 29.56 in 9.0 mi South 17.3 mph 24.2 mph N/A   Overcast
9:35 AM 46.4 °F 38.7 °F 42.8 °F 87% 29.54 in 5.0 mi South 20.7 mph 27.6 mph N/A   Mostly Cloudy
9:55 AM 46.4 °F 39.0 °F 42.8 °F 87% 29.53 in 5.0 mi South 19.6 mph 28.8 mph N/A   Mostly Cloudy
10:15 AM 46.4 °F 39.2 °F 42.8 °F 87% 29.52 in 3.0 mi South 18.4 mph 28.8 mph N/A Rain Light Rain
10:35 AM 46.4 °F 38.3 °F 42.8 °F 87% 29.51 in 5.0 mi South 23.0 mph 32.2 mph N/A   Mostly Cloudy
10:55 AM 46.4 °F 38.5 °F 42.8 °F 87% 29.50 in 3.0 mi South 21.9 mph 31.1 mph N/A Rain Light Rain
11:15 AM 46.4 °F 39.0 °F 44.6 °F 93% 29.51 in 1.5 mi South 19.6 mph 26.5 mph N/A   Overcast
11:35 AM 44.6 °F 38.1 °F 42.8 °F 93% 29.52 in 7.0 mi SSW 13.8 mph 27.6 mph N/A   Overcast
11:55 AM 46.4 °F 40.7 °F 41.0 °F 81% 29.50 in 10.0 mi South 12.7 mph 28.8 mph N/A   Overcast
12:15 PM 46.4 °F 41.5 °F 41.0 °F 81% 29.47 in 8.0 mi SW 10.4 mph 25.3 mph N/A   Overcast
12:35 PM 48.2 °F - 41.0 °F 76% 29.46 in 6.0 mi SSW 18.4 mph 26.5 mph N/A   Haze
12:55 PM 48.2 °F - 41.0 °F 76% 29.47 in 10.0 mi SW 15.0 mph 31.1 mph 0.01 in   Mostly Cloudy
1:15 PM 46.4 °F 40.4 °F 41.0 °F 81% 29.47 in 2.0 mi WSW 13.8 mph 25.3 mph 0.03 in Rain Rain
1:35 PM 46.4 °F 37.7 °F 41.0 °F 81% 29.48 in 5.0 mi SW 26.5 mph 43.7 mph 0.03 in Rain Light Rain
1:55 PM 44.6 °F 36.9 °F 39.2 °F 81% 29.48 in 6.0 mi SW 18.4 mph 31.1 mph 0.06 in   Scattered Clouds
2:15 PM 44.6 °F 38.4 °F 39.2 °F 81% 29.48 in 10.0 mi SSW 12.7 mph 23.0 mph N/A   Mostly Cloudy
2:35 PM 46.4 °F 40.7 °F 39.2 °F 76% 29.48 in 10.0 mi SSW 12.7 mph 20.7 mph N/A   Scattered Clouds
2:55 PM 46.4 °F 40.7 °F 41.0 °F 81% 29.49 in 4.0 mi SW 12.7 mph 23.0 mph N/A Rain Light Rain
3:15 PM 46.4 °F 42.4 °F 41.0 °F 81% 29.50 in 10.0 mi SW 8.1 mph 18.4 mph N/A   Scattered Clouds
3:35 PM 46.4 °F 41.5 °F 41.0 °F 81% 29.50 in 10.0 mi South 10.4 mph 19.6 mph N/A   Scattered Clouds
3:55 PM 46.4 °F 41.1 °F 41.0 °F 81% 29.52 in 10.0 mi SSW 11.5 mph 19.6 mph 0.01 in   Mostly Cloudy
4:15 PM 46.4 °F 40.1 °F 41.0 °F 81% 29.52 in 9.0 mi SW 15.0 mph 26.5 mph N/A   Overcast
4:35 PM 46.4 °F 40.7 °F 41.0 °F 81% 29.54 in 5.0 mi SW 12.7 mph 17.3 mph N/A   Overcast
4:55 PM 46.4 °F 41.5 °F 41.0 °F 81% 29.55 in 9.0 mi SW 10.4 mph 18.4 mph N/A   Overcast
5:15 PM 44.6 °F 39.7 °F 41.0 °F 87% 29.57 in 5.0 mi WSW 9.2 mph 21.9 mph N/A Rain Light Rain
5:35 PM 44.6 °F 41.4 °F 41.0 °F 87% 29.58 in 10.0 mi West 5.8 mph 16.1 mph N/A Rain Light Rain
5:55 PM 44.6 °F 38.8 °F 41.0 °F 87% 29.60 in 4.0 mi WSW 11.5 mph 31.1 mph N/A Rain Light Rain
6:15 PM 44.6 °F 40.7 °F 41.0 °F 87% 29.63 in 3.0 mi West 6.9 mph 17.3 mph N/A Rain Rain
6:35 PM 44.6 °F 41.4 °F 41.0 °F 87% 29.64 in 8.0 mi SW 5.8 mph - N/A   Overcast
6:55 PM 42.8 °F 40.1 °F 41.0 °F 93% 29.66 in 10.0 mi WSW 4.6 mph - N/A Rain Light Rain
7:15 PM 42.8 °F 38.6 °F 41.0 °F 93% 29.67 in 9.0 mi WSW 6.9 mph - N/A   Mostly Cloudy
7:35 PM 42.8 °F 39.3 °F 41.0 °F 93% 29.69 in 10.0 mi SW 5.8 mph - N/A   Mostly Cloudy
7:55 PM 44.6 °F 41.4 °F 41.0 °F 87% 29.72 in 10.0 mi WSW 5.8 mph - 0.01 in   Overcast
8:15 PM 44.6 °F 38.8 °F 41.0 °F 87% 29.73 in 10.0 mi West 11.5 mph 19.6 mph N/A   Overcast
8:35 PM 44.6 °F 39.2 °F 39.2 °F 81% 29.77 in 4.0 mi WNW 10.4 mph 25.3 mph 0.01 in   Haze
8:55 PM 42.8 °F 40.1 °F 41.0 °F 93% 29.78 in 10.0 mi SW 4.6 mph - 0.01 in   Mostly Cloudy
9:15 PM 44.6 °F 41.4 °F 41.0 °F 87% 29.80 in 9.0 mi SW 5.8 mph - N/A   Mostly Cloudy
9:35 PM 44.6 °F 42.2 °F 41.0 °F 87% 29.82 in 10.0 mi WNW 4.6 mph - N/A   Overcast
9:55 PM 44.6 °F 41.4 °F 41.0 °F 87% 29.84 in 9.0 mi WSW 5.8 mph - 0.01 in   Overcast
10:15 PM 44.6 °F 43.1 °F 41.0 °F 87% 29.87 in 5.0 mi West 3.5 mph - N/A Rain Light Rain
10:35 PM 44.6 °F 40.7 °F 39.2 °F 81% 29.89 in 5.0 mi WNW 6.9 mph - N/A   Haze
10:55 PM 44.6 °F 40.7 °F 39.2 °F 81% 29.92 in 10.0 mi WNW 6.9 mph - N/A   Overcast
11:15 PM 44.6 °F - 37.4 °F 76% 29.94 in 10.0 mi Calm Calm - N/A   Overcast
11:35 PM 44.6 °F 43.1 °F 37.4 °F 76% 29.95 in 10.0 mi WSW 3.5 mph - N/A   Overcast
11:55 PM 44.6 °F 42.2 °F 37.4 °F 76% 29.97 in 8.0 mi WSW 4.6 mph - N/A   Overcast